| time (UTC) | temp F | wind direction | speed knots | gust knots | rain 1hr in | rain 24hr in | rain mn in | humidity % | barometer mb |
| 20260906165306 | 83 | 235 | 0.9 | 2.6 | 0.00 | 0.00 | 0.00 | 75 | 1017.7 |
| 20260906164310 | 81 | 100 | 0.9 | 4.3 | 0.00 | 0.00 | 0.00 | 78 | 1017.7 |
| 20260906163803 | 81 | 310 | 0.9 | 4.3 | 0.00 | 0.00 | 0.00 | 79 | 1017.7 |
| 20260906163303 | 80 | 100 | 1.7 | 6.1 | 0.00 | 0.00 | 0.00 | 80 | 1017.7 |
| 20260906162803 | 80 | 267 | 1.7 | 7.0 | 0.00 | 0.00 | 0.00 | 79 | 1017.8 |
| 20260906162306 | 80 | 280 | 1.7 | 7.0 | 0.00 | 0.00 | 0.00 | 79 | 1017.9 |
| 20260906161804 | 80 | 302 | 1.7 | 4.3 | 0.00 | 0.00 | 0.00 | 79 | 1017.9 |
| 20260906161304 | 80 | 212 | 2.6 | 5.2 | 0.00 | 0.00 | 0.00 | 79 | 1017.9 |
| 20260906160803 | 80 | 241 | 1.7 | 5.2 | 0.00 | 0.00 | 0.00 | 79 | 1017.0 |
| 20260906160303 | 80 | 100 | 1.7 | 4.3 | 0.00 | 0.00 | 0.00 | 79 | 1016.5 |
| 20260906155803 | 80 | 347 | 1.7 | 7.8 | 0.00 | 0.00 | 0.00 | 79 | 1016.5 |
| 20260906155306 | 79 | 325 | 1.7 | 7.8 | 0.00 | 0.00 | 0.00 | 79 | 1016.5 |
| 20260906154803 | 79 | 303 | 1.7 | 5.2 | 0.00 | 0.00 | 0.00 | 79 | 1016.8 |
| 20260906154303 | 80 | 258 | 1.7 | 5.2 | 0.00 | 0.00 | 0.00 | 78 | 1016.9 |
| 20260906153803 | 80 | 130 | 1.7 | 5.2 | 0.00 | 0.00 | 0.00 | 80 | 1016.9 |
| 20260906153303 | 79 | 302 | 1.7 | 7.0 | 0.00 | 0.00 | 0.00 | 80 | 1016.9 |
| 20260906152803 | 79 | 262 | 2.6 | 7.0 | 0.00 | 0.00 | 0.00 | 81 | 1016.7 |
| 20260906151803 | 73 | 269 | 0.9 | 4.3 | 0.00 | 0.00 | 0.00 | 83 | 1016.6 |
| 20260906151303 | 73 | 258 | 0.9 | 4.3 | 0.00 | 0.00 | 0.00 | 83 | 1016.6 |
| 20260906150804 | 72 | 252 | 0.9 | 2.6 | 0.00 | 0.00 | 0.00 | 82 | 1016.6 |
| 20260906150304 | 73 | 10 | 0.9 | 2.6 | 0.00 | 0.00 | 0.00 | 83 | 1016.6 |
| 20260906145803 | 72 | 141 | 1.7 | 4.3 | 0.00 | 0.00 | 0.00 | 83 | 1016.6 |
| 20260906145306 | 72 | 78 | 1.7 | 4.3 | 0.00 | 0.00 | 0.00 | 84 | 1016.6 |
| 20260906144303 | 72 | 302 | 2.6 | 6.1 | 0.00 | 0.00 | 0.00 | 84 | 1016.5 |
| 20260906143804 | 71 | 285 | 2.6 | 8.7 | 0.00 | 0.00 | 0.00 | 83 | 1016.5 |
| 20260906143304 | 72 | 295 | 2.6 | 8.7 | 0.00 | 0.00 | 0.00 | 83 | 1016.5 |
| 20260906142806 | 72 | 154 | 1.7 | 6.1 | 0.00 | 0.00 | 0.00 | 85 | 1016.3 |
| 20260906142306 | 72 | 302 | 1.7 | 4.3 | 0.00 | 0.00 | 0.00 | 83 | 1016.2 |
| 20260906141803 | 72 | 215 | 0.9 | 4.3 | 0.00 | 0.00 | 0.00 | 84 | 1016.2 |
| 20260906140803 | 72 | 148 | 0.9 | 4.3 | 0.00 | 0.00 | 0.00 | 84 | 1016.2 |
| 20260906140303 | 72 | 215 | 0.9 | 4.3 | 0.00 | 0.00 | 0.00 | 84 | 1016.2 |
| 20260906135803 | 72 | 289 | 0.9 | 2.6 | 0.00 | 0.00 | 0.00 | 84 | 1016.2 |
| 20260906135305 | 72 | 130 | 0.9 | 2.6 | 0.00 | 0.00 | 0.00 | 85 | 1016.2 |
| 20260906134804 | 72 | 350 | 0.9 | 2.6 | 0.00 | 0.00 | 0.00 | 86 | 1016.3 |
| 20260906134303 | 72 | 177 | 0.9 | 4.3 | 0.00 | 0.00 | 0.00 | 86 | 1016.3 |
| 20260906133803 | 71 | 300 | 0.9 | 4.3 | 0.00 | 0.00 | 0.00 | 86 | 1016.3 |
| 20260906133304 | 71 | 258 | 0.0 | 2.6 | 0.00 | 0.00 | 0.00 | 87 | 1016.3 |
| 20260906132804 | 71 | 156 | 0.9 | 2.6 | 0.00 | 0.00 | 0.00 | 87 | 1016.4 |
| 20260906131803 | 71 | 110 | 0.9 | 1.7 | 0.00 | 0.00 | 0.00 | 87 | 1016.4 |
| 20260906131303 | 71 | 134 | 0.9 | 1.7 | 0.00 | 0.00 | 0.00 | 87 | 1016.4 |
| 20260906130804 | 71 | 282 | 0.0 | 1.7 | 0.00 | 0.00 | 0.00 | 87 | 1016.1 |
| 20260906130303 | 71 | 328 | 0.0 | 0.0 | 0.00 | 0.00 | 0.00 | 87 | 1015.9 |
| 20260906125804 | 71 | 258 | 0.0 | 1.7 | 0.00 | 0.00 | 0.00 | 87 | 1015.9 |
| 20260906125306 | 71 | 325 | 0.9 | 2.6 | 0.00 | 0.00 | 0.00 | 87 | 1015.9 |
| 20260906124804 | 71 | 258 | 0.9 | 2.6 | 0.00 | 0.00 | 0.00 | 88 | 1015.9 |
| 20260906124303 | 70 | 304 | 0.9 | 2.6 | 0.00 | 0.00 | 0.00 | 88 | 1015.9 |
| 20260906123803 | 70 | 133 | 0.0 | 1.7 | 0.00 | 0.00 | 0.00 | 88 | 1015.9 |
| 20260906123303 | 70 | 258 | 0.9 | 0.0 | 0.00 | 0.00 | 0.00 | 88 | 1015.9 |
| 20260906121804 | 71 | 348 | 0.0 | 2.6 | 0.00 | 0.00 | 0.00 | 88 | 1015.8 |
| 20260906121303 | 70 | 122 | 0.0 | 0.0 | 0.00 | 0.00 | 0.00 | 88 | 1015.8 |
| 20260906120803 | 70 | 114 | 0.0 | 0.0 | 0.00 | 0.00 | 0.00 | 88 | 1015.7 |
| 20260906120304 | 70 | 328 | 0.0 | 0.0 | 0.00 | 0.00 | 0.00 | 87 | 1015.6 |
| 20260906115804 | 70 | 297 | 0.0 | 1.7 | 0.00 | 0.00 | 0.00 | 88 | 1015.6 |
| 20260906115306 | 70 | 325 | 0.0 | 0.0 | 0.00 | 0.00 | 0.00 | 87 | 1015.6 |
| 20260906114803 | 70 | 258 | 0.0 | 1.7 | 0.00 | 0.00 | 0.00 | 87 | 1015.6 |
| 20260906114303 | 70 | 212 | 0.0 | 1.7 | 0.00 | 0.00 | 0.00 | 87 | 1015.6 |
| 20260906113803 | 71 | 272 | 0.0 | 0.0 | 0.00 | 0.00 | 0.00 | 86 | 1015.6 |
| 20260906113303 | 71 | 235 | 0.0 | 1.7 | 0.00 | 0.00 | 0.00 | 86 | 1015.6 |
| 20260906112804 | 71 | 100 | 0.0 | 1.7 | 0.00 | 0.00 | 0.00 | 85 | 1015.3 |
| 20260906111304 | 71 | 325 | 0.0 | 0.0 | 0.00 | 0.00 | 0.00 | 85 | 1015.1 |
| 20260906110803 | 71 | 154 | 0.0 | 0.0 | 0.00 | 0.00 | 0.00 | 85 | 1015.1 |
| 20260906105803 | 71 | 245 | 0.9 | 0.0 | 0.00 | 0.00 | 0.00 | 84 | 1015.1 |
| 20260906105306 | 71 | 168 | 0.9 | 1.7 | 0.00 | 0.00 | 0.00 | 84 | 1015.1 |
| 20260906104803 | 72 | 226 | 0.9 | 2.6 | 0.00 | 0.00 | 0.00 | 84 | 1015.0 |
| 20260906104303 | 72 | 10 | 0.9 | 2.6 | 0.00 | 0.00 | 0.00 | 84 | 1015.0 |
| 20260906103803 | 72 | 342 | 0.0 | 2.6 | 0.00 | 0.00 | 0.00 | 84 | 1015.0 |
| 20260906103304 | 72 | 10 | 0.0 | 0.0 | 0.00 | 0.00 | 0.00 | 83 | 1015.0 |
| 20260906102803 | 72 | 258 | 0.0 | 1.7 | 0.00 | 0.00 | 0.00 | 83 | 1014.8 |
| 20260906101803 | 73 | 325 | 0.0 | 0.0 | 0.00 | 0.00 | 0.00 | 84 | 1014.6 |
| 20260906100803 | 73 | 128 | 0.0 | 0.0 | 0.00 | 0.00 | 0.00 | 83 | 1014.5 |
| 20260906100303 | 73 | 145 | 0.9 | 0.0 | 0.00 | 0.00 | 0.00 | 83 | 1014.5 |
| 20260906095803 | 73 | 242 | 0.9 | 1.7 | 0.00 | 0.00 | 0.00 | 84 | 1014.5 |
| 20260906095305 | 73 | 258 | 0.9 | 1.7 | 0.00 | 0.00 | 0.00 | 84 | 1014.5 |
| 20260906094803 | 73 | 296 | 0.9 | 4.3 | 0.00 | 0.00 | 0.00 | 82 | 1014.5 |
| 20260906094303 | 73 | 302 | 0.0 | 0.0 | 0.00 | 0.00 | 0.00 | 82 | 1014.5 |
| 20260906093803 | 74 | 295 | 0.0 | 0.0 | 0.00 | 0.00 | 0.00 | 81 | 1014.5 |
| 20260906093303 | 74 | 145 | 0.9 | 0.0 | 0.00 | 0.00 | 0.00 | 81 | 1014.5 |
| 20260906092804 | 74 | 88 | 0.0 | 1.7 | 0.00 | 0.00 | 0.00 | 81 | 1014.5 |
| 20260906092306 | 74 | 325 | 0.0 | 1.7 | 0.00 | 0.00 | 0.00 | 81 | 1014.5 |
| 20260906091803 | 74 | 7 | 0.0 | 1.7 | 0.00 | 0.00 | 0.00 | 81 | 1014.5 |
| 20260906091303 | 74 | 78 | 0.9 | 0.0 | 0.00 | 0.00 | 0.00 | 81 | 1014.5 |
| 20260906090803 | 74 | 229 | 0.9 | 1.7 | 0.00 | 0.00 | 0.00 | 81 | 1014.5 |
| 20260906090303 | 75 | 280 | 0.9 | 4.3 | 0.00 | 0.00 | 0.00 | 81 | 1014.5 |
| 20260906085306 | 75 | 258 | 0.9 | 4.3 | 0.00 | 0.00 | 0.00 | 80 | 1014.5 |
| 20260906084804 | 75 | 97 | 0.0 | 5.2 | 0.00 | 0.00 | 0.00 | 77 | 1014.4 |
| 20260906084303 | 76 | 280 | 0.0 | 5.2 | 0.00 | 0.00 | 0.00 | 77 | 1014.4 |
| 20260906083803 | 75 | 173 | 0.0 | 0.0 | 0.00 | 0.00 | 0.00 | 76 | 1014.4 |
| 20260906083303 | 76 | 235 | 0.9 | 4.3 | 0.00 | 0.00 | 0.00 | 76 | 1014.4 |
| 20260906082803 | 76 | 145 | 0.9 | 4.3 | 0.00 | 0.00 | 0.00 | 77 | 1014.4 |
| 20260906081804 | 76 | 195 | 0.9 | 5.2 | 0.00 | 0.00 | 0.00 | 78 | 1014.4 |
| 20260906081303 | 76 | 302 | 0.0 | 5.2 | 0.00 | 0.00 | 0.00 | 79 | 1014.4 |
| 20260906080803 | 77 | 119 | 0.0 | 0.0 | 0.00 | 0.00 | 0.00 | 78 | 1014.4 |
| 20260906080304 | 77 | 168 | 0.0 | 2.6 | 0.00 | 0.00 | 0.00 | 78 | 1014.4 |
| 20260906075803 | 77 | 155 | 0.0 | 2.6 | 0.00 | 0.00 | 0.00 | 77 | 1014.4 |
| 20260906075306 | 77 | 302 | 0.0 | 1.7 | 0.00 | 0.00 | 0.00 | 75 | 1014.4 |
| 20260906074304 | 78 | 100 | 0.0 | 1.7 | 0.00 | 0.00 | 0.00 | 75 | 1014.2 |
| 20260906073804 | 78 | 210 | 0.0 | 2.6 | 0.00 | 0.00 | 0.00 | 75 | 1014.2 |
| 20260906073303 | 78 | 145 | 0.0 | 2.6 | 0.00 | 0.00 | 0.00 | 75 | 1014.2 |
| 20260906072306 | 78 | 325 | 0.0 | 0.0 | 0.00 | 0.00 | 0.00 | 75 | 1014.1 |
| 20260906071803 | 79 | 354 | 0.0 | 0.0 | 0.00 | 0.00 | 0.00 | 76 | 1014.1 |
| 20260906071304 | 78 | 168 | 0.9 | 0.0 | 0.00 | 0.00 | 0.00 | 76 | 1014.1 |
| 20260906070303 | 78 | 325 | 0.9 | 4.3 | 0.00 | 0.00 | 0.00 | 77 | 1014.2 |
| 20260906065803 | 78 | 163 | 0.9 | 4.3 | 0.00 | 0.00 | 0.00 | 76 | 1014.2 |
| 20260906065305 | 79 | 190 | 0.9 | 0.0 | 0.00 | 0.00 | 0.00 | 77 | 1014.2 |
| 20260906064803 | 79 | 240 | 0.9 | 0.0 | 0.00 | 0.00 | 0.00 | 76 | 1014.3 |
| 20260906064303 | 79 | 280 | 0.9 | 2.6 | 0.00 | 0.00 | 0.00 | 77 | 1014.3 |
| 20260906063303 | 79 | 302 | 0.0 | 0.0 | 0.00 | 0.00 | 0.00 | 75 | 1014.3 |
| 20260906062804 | 79 | 21 | 0.0 | 0.0 | 0.00 | 0.00 | 0.00 | 74 | 1014.4 |
| 20260906062306 | 80 | 145 | 0.0 | 0.0 | 0.00 | 0.00 | 0.00 | 74 | 1014.4 |
| 20260906061804 | 80 | 118 | 0.0 | 4.3 | 0.00 | 0.00 | 0.00 | 74 | 1014.4 |
| 20260906061303 | 80 | 100 | 0.0 | 4.3 | 0.00 | 0.00 | 0.00 | 72 | 1014.4 |
| 20260906060803 | 80 | 71 | 0.0 | 1.7 | 0.00 | 0.00 | 0.00 | 72 | 1014.4 |
| 20260906060304 | 81 | 145 | 0.0 | 1.7 | 0.00 | 0.00 | 0.00 | 73 | 1014.4 |
| 20260906055803 | 81 | 49 | 0.0 | 2.6 | 0.00 | 0.00 | 0.00 | 73 | 1014.4 |
| 20260906055306 | 80 | 325 | 0.0 | 1.7 | 0.00 | 0.00 | 0.00 | 71 | 1014.4 |
| 20260906054803 | 81 | 83 | 0.0 | 2.6 | 0.00 | 0.00 | 0.00 | 70 | 1014.5 |
| 20260906054303 | 81 | 302 | 0.9 | 2.6 | 0.00 | 0.00 | 0.00 | 70 | 1014.5 |
| 20260906053804 | 81 | 164 | 0.9 | 5.2 | 0.00 | 0.00 | 0.00 | 70 | 1014.5 |
| 20260906053303 | 81 | 122 | 0.9 | 1.7 | 0.00 | 0.00 | 0.00 | 69 | 1014.5 |
| 20260906052803 | 81 | 104 | 0.9 | 1.7 | 0.00 | 0.00 | 0.00 | 70 | 1014.4 |
| 20260906052305 | 82 | 55 | 0.0 | 0.0 | 0.00 | 0.00 | 0.00 | 69 | 1014.3 |
| 20260906050820 | 82 | 100 | 0.9 | 1.7 | 0.00 | 0.00 | 0.00 | 69 | 1014.2 |
| 20260906050304 | 82 | 122 | 0.0 | 0.0 | 0.00 | 0.00 | 0.00 | 68 | 1014.0 |
| 20260906045804 | 82 | 280 | 0.0 | 4.3 | 0.00 | 0.00 | 0.00 | 67 | 1014.0 |
| 20260906045306 | 82 | 302 | 0.0 | 1.7 | 0.00 | 0.00 | 0.00 | 67 | 1014.0 |
| 20260906044803 | 82 | 48 | 0.0 | 1.7 | 0.00 | 0.00 | 0.00 | 66 | 1014.0 |
| 20260906044303 | 82 | 212 | 0.0 | 0.0 | 0.00 | 0.00 | 0.00 | 66 | 1014.0 |
| 20260906043303 | 82 | 122 | 0.0 | 1.7 | 0.00 | 0.00 | 0.00 | 65 | 1014.0 |
| 20260906042804 | 82 | 95 | 0.0 | 0.0 | 0.00 | 0.00 | 0.00 | 64 | 1013.9 |
| 20260906042306 | 83 | 302 | 0.0 | 0.0 | 0.00 | 0.00 | 0.00 | 64 | 1013.9 |
| 20260906041804 | 83 | 269 | 0.9 | 0.0 | 0.00 | 0.00 | 0.00 | 64 | 1013.9 |
| 20260906041304 | 83 | 10 | 0.9 | 4.3 | 0.00 | 0.00 | 0.00 | 64 | 1013.9 |
| 20260906040804 | 83 | 191 | 0.0 | 0.0 | 0.00 | 0.00 | 0.00 | 63 | 1013.7 |
| 20260906034803 | 83 | 232 | 0.0 | 0.0 | 0.00 | 0.00 | 0.00 | 60 | 1013.5 |
| 20260906033803 | 84 | 302 | 0.9 | 5.2 | 0.00 | 0.00 | 0.00 | 60 | 1013.5 |
| 20260906033304 | 84 | 258 | 0.9 | 5.2 | 0.00 | 0.00 | 0.00 | 60 | 1013.5 |
| 20260906032804 | 84 | 279 | 1.7 | 2.6 | 0.00 | 0.00 | 0.00 | 59 | 1013.3 |
| 20260906031804 | 84 | 314 | 0.9 | 5.2 | 0.00 | 0.00 | 0.00 | 58 | 1013.2 |
| 20260906031304 | 85 | 32 | 0.9 | 5.2 | 0.00 | 0.00 | 0.00 | 57 | 1013.2 |
| 20260906030803 | 85 | 235 | 0.9 | 4.3 | 0.00 | 0.00 | 0.00 | 57 | 1013.1 |
| 20260906025803 | 85 | 255 | 0.9 | 4.3 | 0.00 | 0.00 | 0.00 | 56 | 1013.1 |
| 20260906025306 | 85 | 212 | 0.9 | 2.6 | 0.00 | 0.00 | 0.00 | 55 | 1013.1 |
| 20260906024803 | 85 | 232 | 0.9 | 2.6 | 0.00 | 0.00 | 0.00 | 55 | 1012.9 |
| 20260906023803 | 85 | 308 | 0.0 | 1.7 | 0.00 | 0.00 | 0.00 | 52 | 1012.7 |
| 20260906023304 | 85 | 258 | 0.0 | 2.6 | 0.00 | 0.00 | 0.00 | 50 | 1012.7 |
| 20260906022306 | 85 | 190 | 0.0 | 0.0 | 0.00 | 0.00 | 0.00 | 49 | 1012.5 |
| 20260906021803 | 85 | 275 | 0.0 | 0.0 | 0.00 | 0.00 | 0.00 | 49 | 1012.5 |
| 20260906021303 | 85 | 235 | 0.0 | 0.0 | 0.00 | 0.00 | 0.00 | 49 | 1012.5 |
| 20260906020804 | 85 | 244 | 0.0 | 1.7 | 0.00 | 0.00 | 0.00 | 49 | 1012.4 |
| 20260906020303 | 86 | 235 | 0.0 | 1.7 | 0.00 | 0.00 | 0.00 | 49 | 1012.4 |
| 20260906015803 | 85 | 285 | 0.0 | 1.7 | 0.00 | 0.00 | 0.00 | 49 | 1012.4 |
| 20260906015306 | 85 | 212 | 0.0 | 0.0 | 0.00 | 0.00 | 0.00 | 48 | 1012.4 |
| 20260906014304 | 86 | 258 | 0.0 | 0.0 | 0.00 | 0.00 | 0.00 | 48 | 1012.0 |
| 20260906013804 | 86 | 275 | 0.0 | 0.0 | 0.00 | 0.00 | 0.00 | 47 | 1012.0 |
| 20260906013303 | 86 | 302 | 0.0 | 0.0 | 0.00 | 0.00 | 0.00 | 46 | 1012.0 |
| 20260906012803 | 87 | 105 | 0.0 | 0.0 | 0.00 | 0.00 | 0.00 | 46 | 1012.1 |
| 20260906012306 | 87 | 258 | 0.0 | 0.0 | 0.00 | 0.00 | 0.00 | 46 | 1012.1 |
| 20260906011804 | 87 | 201 | 0.0 | 0.0 | 0.00 | 0.00 | 0.00 | 46 | 1012.1 |
| 20260906011303 | 87 | 280 | 0.9 | 2.6 | 0.00 | 0.00 | 0.00 | 46 | 1012.1 |
| 20260906010804 | 87 | 164 | 0.9 | 4.3 | 0.00 | 0.00 | 0.00 | 46 | 1012.1 |
| 20260906005803 | 88 | 292 | 0.0 | 0.0 | 0.00 | 0.00 | 0.00 | 45 | 1012.1 |
| 20260906004804 | 88 | 139 | 0.0 | 0.0 | 0.00 | 0.00 | 0.00 | 44 | 1012.0 |
| 20260906004304 | 89 | 325 | 0.0 | 1.7 | 0.00 | 0.00 | 0.00 | 44 | 1011.9 |
| 20260906003804 | 89 | 264 | 0.9 | 1.7 | 0.00 | 0.00 | 0.00 | 44 | 1011.9 |
| 20260906003303 | 89 | 168 | 0.0 | 0.0 | 0.00 | 0.00 | 0.00 | 43 | 1011.9 |
| 20260906002803 | 90 | 275 | 0.0 | 4.3 | 0.00 | 0.00 | 0.00 | 42 | 1011.8 |
| 20260906002306 | 90 | 145 | 0.0 | 1.7 | 0.00 | 0.00 | 0.00 | 42 | 1011.8 |
| 20260906001803 | 90 | 103 | 0.0 | 0.0 | 0.00 | 0.00 | 0.00 | 42 | 1011.8 |
| 20260906000803 | 91 | 108 | 0.0 | 0.0 | 0.00 | 0.00 | 0.00 | 42 | 1011.9 |
| 20260906000304 | 91 | 258 | 0.0 | 0.0 | 0.00 | 0.00 | 0.00 | 42 | 1011.9 |
| 20260905235803 | 92 | 241 | 0.9 | 1.7 | 0.00 | 0.00 | 0.00 | 41 | 1011.9 |
| 20260905235306 | 92 | 258 | 0.9 | 1.7 | 0.00 | 0.00 | 0.00 | 41 | 1011.9 |
| 20260905234803 | 92 | 266 | 0.9 | 5.2 | 0.00 | 0.00 | 0.00 | 41 | 1012.0 |
| 20260905234304 | 92 | 258 | 0.9 | 5.2 | 0.00 | 0.00 | 0.00 | 40 | 1012.0 |
| 20260905233804 | 92 | 316 | 0.9 | 2.6 | 0.00 | 0.00 | 0.00 | 39 | 1012.0 |
| 20260905233303 | 92 | 168 | 0.9 | 5.2 | 0.00 | 0.00 | 0.00 | 39 | 1012.0 |
| 20260905232804 | 93 | 193 | 1.7 | 4.3 | 0.00 | 0.00 | 0.00 | 39 | 1012.0 |
| 20260905232306 | 93 | 190 | 2.6 | 4.3 | 0.00 | 0.00 | 0.00 | 38 | 1012.0 |
| 20260905231804 | 93 | 276 | 2.6 | 7.8 | 0.00 | 0.00 | 0.00 | 36 | 1012.0 |
| 20260905231304 | 94 | 325 | 2.6 | 5.2 | 0.00 | 0.00 | 0.00 | 34 | 1012.0 |
| 20260905230803 | 94 | 288 | 1.7 | 6.1 | 0.00 | 0.00 | 0.00 | 34 | 1011.9 |
| 20260905230303 | 95 | 302 | 1.7 | 6.1 | 0.00 | 0.00 | 0.00 | 33 | 1011.9 |
| 20260905225305 | 97 | 302 | 4.3 | 8.7 | 0.00 | 0.00 | 0.00 | 31 | 1011.9 |
| 20260905224804 | 98 | 270 | 2.6 | 12.2 | 0.00 | 0.00 | 0.00 | 29 | 1011.8 |
| 20260905224303 | 102 | 302 | 1.7 | 8.7 | 0.00 | 0.00 | 0.00 | 28 | 1011.8 |
| 20260905223804 | 102 | 307 | 1.7 | 8.7 | 0.00 | 0.00 | 0.00 | 29 | 1011.8 |
| 20260905223304 | 99 | 348 | 4.3 | 7.0 | 0.00 | 0.00 | 0.00 | 31 | 1011.8 |
| 20260905222804 | 98 | 36 | 4.3 | 7.8 | 0.00 | 0.00 | 0.00 | 32 | 1011.9 |
| 20260905222306 | 98 | 280 | 2.6 | 5.2 | 0.00 | 0.00 | 0.00 | 32 | 1012.0 |
| 20260905221804 | 99 | 301 | 1.7 | 5.2 | 0.00 | 0.00 | 0.00 | 32 | 1012.0 |
| 20260905221304 | 98 | 302 | 1.7 | 1.7 | 0.00 | 0.00 | 0.00 | 33 | 1012.0 |
| 20260905220803 | 99 | 302 | 1.7 | 2.6 | 0.00 | 0.00 | 0.00 | 33 | 1011.9 |
| 20260905215804 | 99 | 72 | 3.5 | 12.2 | 0.00 | 0.00 | 0.00 | 32 | 1011.8 |
| 20260905215306 | 100 | 78 | 4.3 | 5.2 | 0.00 | 0.00 | 0.00 | 32 | 1011.8 |
| 20260905213804 | 101 | 302 | 4.3 | 7.8 | 0.00 | 0.00 | 0.00 | 32 | 1011.8 |
| 20260905213303 | 101 | 78 | 4.3 | 12.2 | 0.00 | 0.00 | 0.00 | 33 | 1011.8 |
| 20260905212804 | 100 | 267 | 5.2 | 8.7 | 0.00 | 0.00 | 0.00 | 34 | 1012.3 |
| 20260905212306 | 97 | 280 | 5.2 | 13.0 | 0.00 | 0.00 | 0.00 | 36 | 1012.7 |
| 20260905211304 | 95 | 212 | 5.2 | 10.4 | 0.00 | 0.00 | 0.00 | 34 | 1012.7 |
| 20260905210803 | 97 | 65 | 4.3 | 18.2 | 0.00 | 0.00 | 0.00 | 31 | 1012.3 |
| 20260905205804 | 102 | 179 | 0.9 | 5.2 | 0.00 | 0.00 | 0.00 | 26 | 1012.0 |
| 20260905205306 | 101 | 122 | 1.7 | 2.6 | 0.00 | 0.00 | 0.00 | 26 | 1012.0 |
| 20260905203804 | 102 | 316 | 4.3 | 7.0 | 0.00 | 0.00 | 0.00 | 24 | 1012.3 |
| 20260905203304 | 104 | 302 | 2.6 | 7.0 | 0.00 | 0.00 | 0.00 | 23 | 1012.3 |
| 20260905202803 | 105 | 329 | 1.7 | 4.3 | 0.00 | 0.00 | 0.00 | 23 | 1012.3 |
| 20260905202306 | 106 | 212 | 1.7 | 1.7 | 0.00 | 0.00 | 0.00 | 22 | 1012.3 |
| 20260905201804 | 105 | 325 | 2.6 | 7.8 | 0.00 | 0.00 | 0.00 | 24 | 1012.3 |
| 20260905201304 | 104 | 302 | 2.6 | 7.8 | 0.00 | 0.00 | 0.00 | 24 | 1012.3 |
| 20260905200803 | 103 | 294 | 2.6 | 6.1 | 0.00 | 0.00 | 0.00 | 24 | 1012.1 |
| 20260905200304 | 101 | 145 | 3.5 | 4.3 | 0.00 | 0.00 | 0.00 | 26 | 1012.0 |
| 20260905195804 | 104 | 18 | 2.6 | 7.8 | 0.00 | 0.00 | 0.00 | 24 | 1012.0 |
| 20260905195306 | 104 | 280 | 4.3 | 5.2 | 0.00 | 0.00 | 0.00 | 28 | 1012.0 |
| 20260905194304 | 103 | 258 | 1.7 | 5.2 | 0.00 | 0.00 | 0.00 | 29 | 1013.0 |
| 20260905193304 | 102 | 325 | 4.3 | 10.4 | 0.00 | 0.00 | 0.00 | 29 | 1013.0 |
| 20260905192306 | 100 | 348 | 5.2 | 7.8 | 0.00 | 0.00 | 0.00 | 31 | 1013.0 |
| 20260905191804 | 100 | 55 | 5.2 | 12.2 | 0.00 | 0.00 | 0.00 | 30 | 1013.0 |
| 20260905191304 | 101 | 32 | 4.3 | 15.6 | 0.00 | 0.00 | 0.00 | 29 | 1013.0 |
| 20260905190804 | 101 | 342 | 4.3 | 5.2 | 0.00 | 0.00 | 0.00 | 28 | 1013.2 |
| 20260905190304 | 102 | 100 | 3.5 | 7.0 | 0.00 | 0.00 | 0.00 | 29 | 1013.3 |
| 20260905185804 | 102 | 275 | 2.6 | 7.0 | 0.00 | 0.00 | 0.00 | 30 | 1013.3 |
| 20260905184304 | 102 | 302 | 3.5 | 10.4 | 0.00 | 0.00 | 0.00 | 33 | 1013.5 |
| 20260905183803 | 102 | 342 | 1.7 | 7.8 | 0.00 | 0.00 | 0.00 | 35 | 1013.5 |
| 20260905183304 | 101 | 280 | 4.3 | 6.1 | 0.00 | 0.00 | 0.00 | 36 | 1013.5 |
| 20260905182804 | 100 | 293 | 5.2 | 7.8 | 0.00 | 0.00 | 0.00 | 38 | 1013.8 |
| 20260905182305 | 97 | 168 | 5.2 | 7.8 | 0.00 | 0.00 | 0.00 | 38 | 1014.2 |
| 20260905181804 | 97 | 302 | 5.2 | 13.0 | 0.00 | 0.00 | 0.00 | 38 | 1014.2 |
| 20260905181304 | 96 | 100 | 4.3 | 7.8 | 0.00 | 0.00 | 0.00 | 41 | 1014.2 |
| 20260905180804 | 95 | 256 | 4.3 | 7.8 | 0.00 | 0.00 | 0.00 | 41 | 1013.8 |
| 20260905180304 | 94 | 280 | 3.5 | 8.7 | 0.00 | 0.00 | 0.00 | 44 | 1013.6 |
| 20260905175804 | 94 | 302 | 4.3 | 8.7 | 0.00 | 0.00 | 0.00 | 44 | 1013.6 |
| 20260905175306 | 93 | 145 | 2.6 | 8.7 | 0.00 | 0.00 | 0.00 | 44 | 1013.6 |
| 20260905174804 | 94 | 64 | 1.7 | 8.7 | 0.00 | 0.00 | 0.00 | 46 | 1013.8 |
| 20260905173804 | 93 | 302 | 4.3 | 7.0 | 0.00 | 0.00 | 0.00 | 46 | 1014.0 |
| 20260905173304 | 92 | 325 | 4.3 | 5.2 | 0.00 | 0.00 | 0.00 | 47 | 1014.0 |
| 20260905172305 | 92 | 55 | 1.7 | 4.3 | 0.00 | 0.00 | 0.00 | 48 | 1014.4 |
| 20260905171804 | 91 | 36 | 0.9 | 6.1 | 0.00 | 0.00 | 0.00 | 49 | 1014.4 |
| 20260905171304 | 91 | 78 | 1.7 | 6.1 | 0.00 | 0.00 | 0.00 | 49 | 1014.4 |
| 20260905170804 | 91 | 109 | 1.7 | 2.6 | 0.00 | 0.00 | 0.00 | 49 | 1014.6 |
| 20260905170304 | 90 | 32 | 1.7 | 5.2 | 0.00 | 0.00 | 0.00 | 49 | 1014.7 |
| 20260905165804 | 90 | 149 | 1.7 | 5.2 | 0.00 | 0.00 | 0.00 | 50 | 1014.7 |